Retour au catalogue

BREEZE-M R/B

ActifMEO
NORAD 37381·ROCKET BODY·🇷🇺 Russia

Lancé Feb 11, 2008 depuis Baikonur Cosmodrome

Loading…

Prochains Passages (prochaines 24 heures)

TLE

FraisSource: Space-Track

Époque: Sep 14, 2026, 04:18 UTC

1 37381U 08006C   26257.17948388 -.00000252  00000-0  00000-0 0  9996
2 37381  12.1893  27.3876 0245904 305.1570 250.0617  0.95124303 63801

Suivez BREEZE-M R/B en temps réel avec AllMySat

Download on the App Store